STARLINK-11391, 62889

Orbit data source: Space-Track

STARLINK-11391, 62889 is a payload satellite owned by SpaceX/Seattle (US) in LEO that was launched on Tue, 04 Feb 2025 UTC via an FALCON 9 launch vehicle from the Air Force Eastern Test Range (AFETR). Payload-class satellites include a variety of spacecraft equipped with specific instruments for various scientific and technological missions. These include communications satellites like Starlink; space stations such as the ISS; scientific satellites like the Hubble; Earth observation satellites from companies like Planet Labs, Umbra, and HawkEye 360; GPS; miniature CubeSats for education and research; and military/defense satellites.

Loading next visibility...
Identifier
62889, 2025-024L
Orbit
LEO
Country
Flag of USUS
Related business
Manufacturer
SpaceX/Seattle
Mission
Operational Commercial Communications
Bus & Motor
STARLINK V2MD, Unknown motor
Mass
960 kg wet, ~910 kg dry
Launch date (UTC)
2025-02-04 (7 months ago)
Launch vehicle
FALCON 9
Launch site
Air Force Eastern Test Range (AFETR)
Object type
Payload
Rocket body
Debris
Shape & HBR
Box + 2 Pan, 14.5 m
Radar Cross Section
36.964 m², Large (>1 m²)

Expand to show TLE details & history
Last TLE update: 1 day ago

TLE from 1 day ago
0 STARLINK-11391
1 62889U 25024L   25260.07791062  .00184101  00000-0  14042-2 0  9991
2 62889  43.0019 147.7791 0002022 270.0134  90.0502 15.70882022 36168
Epoch: 2025-09-17T01:52Z
TLE epoch observation values (Epoch: 2025-09-17T01:52:11.477Z)
Latitude
-0.00002°
Longitude
123.47223°
Altitude
356.148 km
Speed
7.697 km/s
True Right ascension
09h 51m 06s
True Declination
0° 00' 00"
Sunlit
Object was in daylight at epoch
Visualization orbit readout
Latitude
Unknown
Longitude
Unknown
Altitude
Unknown
Speed
Unknown
Apparent Right ascension
Unknown
Apparent Declination
Unknown
Sunlit
N/A
Visualization observer readout
Local Sidereal Time
22:40:36
Azimuth
Unknown
Elevation
Unknown
Doppler factor
Unknown
Orbital elements
Apogee altitude
359.718 km
Perigee altitude
356.994 km
Semi-major axis
6,736.493 km
Eccentricity
0.0002
Inclination
43.0019°
RAAN
147.7791°
Arg. of periapsis
270.0134°
True anomaly
90.07337°
Mean anomaly
90.0502°
Eccentric anomaly
90.06179°
Mean motion
3.92548 °/min
Orbital period
91.71 mins
BSTAR
0.0014042
Loading maneuver chart data...
Computing Atmospheric mass density...
Loading historical data...
Loading historical data...
Loading historical data...
Loading historical data...
Loading historical data...
Loading historical data...
Loading historical data...

Documentation

Showing up to 5 results
|